Newark, NJ

11:54 PM EST on February 08, 2016 (GMT -0500)
Newark International

Weather History for KEWR - August, 2014

Change the Weather History Date:

Tuesday, August 12, 2014

  Actual Average Record
Temperature  
Mean Temperature 76 °F 76 °F  
Max Temperature 80 °F 85 °F 98 °F (1944)
Min Temperature 72 °F 68 °F 54 °F (1954)
Degree Days  
Heating Degree Days 0 0  
Month to date heating degree days 0 0  
Since 1 June heating degree days 0 17  
Since 1 July heating degree days 0 0  
Cooling Degree Days 11 11  
Month to date cooling degree days 133 143  
Year to date cooling degree days 822 841  
Since 1 June cooling degree days 760 765  
Growing Degree Days 26 (Base 50)    
Moisture  
Dew Point 68 °F    
Average Humidity 80    
Maximum Humidity 93    
Minimum Humidity 67    
Precipitation  
Precipitation 0.25 in 0.12 in 3.44 in (1955)
Month to date precipitation 0.83 1.66  
Year to date precipitation 33.69 29.33  
Snow  
Snow 0.00 in 0.00 in 0.00 in (2002)
Month to date snowfall 0.0 0.0  
Since 1 July snowfall 0.0 0.0  
Snow Depth 0.00 in    
Sea Level Pressure  
Sea Level Pressure 29.98 in    
Wind  
Wind Speed 11 mph (SE)    
Max Wind Speed 23 mph    
Max Gust Speed 35 mph    
Visibility 9 miles    
Events Rain    
T = Trace of Precipitation, MM = Missing Value Source: NWS Daily Summary

Daily Weather History Graph

Daily Weather History Graph

Search for Another Location

Airport or City:

Trip Planner

Search our weather history database for the weather conditions in past years. The results will help you decide how hot, cold, wet, or windy it might be!

Date:

Astronomy

Aug. 12, 2014 Rise Set
Actual Time 6:04 AM EDT 7:58 PM EDT
Civil Twilight 5:34 AM EDT 8:28 PM EDT
Nautical Twilight 4:58 AM EDT 9:04 PM EDT
Astronomical Twilight 4:19 AM EDT 9:43 PM EDT
Moon 9:03 PM EDT (8/12) 8:19 AM EDT (8/12)
Length of Visible Light 14h 53m
Length of Day
13h 54m
Waning Gibbous, 95% of the Moon is Illuminated
Aug 12
Waning Gibbous
Aug 17
Last Quarter
Aug 25
New
Sep 2
First Quarter
Sep 8
Full

Hourly Weather History & Observations

Time (EDT) Temp. Dew Point Humidity Pressure Visibility Wind Dir Wind Speed Gust Speed Precip Events Conditions
12:51 AM 73.9 °F 66.0 °F 76% 30.08 in 10.0 mi SE 8.1 mph - N/A   Mostly Cloudy
1:51 AM 73.9 °F 66.0 °F 76% 30.07 in 10.0 mi SSE 6.9 mph - N/A   Mostly Cloudy
2:51 AM 73.9 °F 66.0 °F 76% 30.05 in 10.0 mi SE 6.9 mph - N/A   Overcast
3:51 AM 73.9 °F 66.0 °F 76% 30.05 in 10.0 mi SE 4.6 mph - N/A   Overcast
4:51 AM 73.4 °F 66.2 °F 78% 30.04 in 10.0 mi SE 6.9 mph - N/A   Overcast
5:51 AM 73.9 °F 66.0 °F 76% 30.04 in 10.0 mi SE 8.1 mph - N/A   Overcast
6:51 AM 73.9 °F 66.0 °F 76% 30.04 in 10.0 mi SE 9.2 mph - N/A   Overcast
7:51 AM 75.0 °F 66.0 °F 73% 30.04 in 10.0 mi SE 8.1 mph - N/A   Overcast
8:51 AM 75.0 °F 66.0 °F 73% 30.03 in 10.0 mi SE 10.4 mph - 0.00 in   Overcast
9:51 AM 75.9 °F 66.9 °F 74% 30.02 in 10.0 mi SE 11.5 mph 20.7 mph N/A   Overcast
10:51 AM 77.0 °F 66.2 °F 69% 30.02 in 10.0 mi SE 15.0 mph 21.9 mph N/A   Overcast
11:51 AM 78.1 °F 66.9 °F 68% 30.01 in 10.0 mi SE 16.1 mph 21.9 mph N/A   Overcast
1:51 PM 78.1 °F 68.0 °F 71% 30.00 in 10.0 mi SE 17.3 mph 26.5 mph N/A   Overcast
2:51 PM 77.0 °F 70.0 °F 79% 29.98 in 10.0 mi SE 13.8 mph 23.0 mph 0.00 in Rain Light Rain
3:51 PM 75.2 °F 69.8 °F 83% 29.96 in 10.0 mi SE 12.7 mph 28.8 mph N/A Rain Light Rain
4:51 PM 75.9 °F 71.1 °F 85% 29.96 in 10.0 mi SE 12.7 mph 20.7 mph 0.01 in   Overcast
5:29 PM 75.2 °F 69.8 °F 83% 29.95 in 10.0 mi SSE 17.3 mph 25.3 mph 0.00 in   Overcast
5:51 PM 75.0 °F 68.0 °F 79% 29.96 in 10.0 mi SSE 12.7 mph 19.6 mph 0.00 in Rain Light Rain
6:51 PM 73.9 °F 70.0 °F 87% 29.93 in 10.0 mi SSE 12.7 mph 19.6 mph 0.00 in Rain Light Rain
7:04 PM 71.6 °F 69.8 °F 94% 29.93 in 2.5 mi SSE 13.8 mph 21.9 mph 0.03 in Rain Heavy Rain
7:11 PM 71.6 °F 69.8 °F 94% 29.93 in 4.0 mi SE 10.4 mph 18.4 mph N/A Rain Light Rain
7:51 PM 73.0 °F 69.1 °F 87% 29.92 in 10.0 mi Variable 4.6 mph - 0.05 in   Mostly Cloudy
8:51 PM 73.9 °F 66.9 °F 79% 29.92 in 10.0 mi SE 5.8 mph - 0.00 in Rain Light Rain
9:51 PM 73.0 °F 66.9 °F 81% 29.91 in 9.0 mi ESE 10.4 mph - 0.02 in Rain Light Rain
10:51 PM 72.0 °F 69.1 °F 91% 29.88 in 6.0 mi ESE 9.2 mph 20.7 mph 0.05 in Rain Light Rain
11:37 PM 73.4 °F 68.0 °F 83% 29.87 in 9.0 mi ESE 9.2 mph 25.3 mph 0.00 in   Overcast
11:51 PM 73.0 °F 68.0 °F 84% 29.86 in 9.0 mi ESE 16.1 mph 23.0 mph 0.00 in   Overcast